Time,TemperatureF,DewpointF,PressureIn,WindDirection,WindDirectionDegrees,WindSpeedMPH,WindSpeedGustMPH,Humidity,HourlyPrecipIn,Conditions,Clouds,dailyrainin,SoftwareType,DateUTC
2013-07-11 00:02:00,57.0,-99.9,30.06,North,349,11.0,16.0,-999,-99.99,,,-99.99,,2013-07-11 07:02:00,
2013-07-11 00:12:00,57.0,-99.9,30.06,North,357,13.0,16.0,-999,-99.99,,,-99.99,,2013-07-11 07:12:00,
2013-07-11 00:32:00,56.0,-99.9,30.06,North,354,10.0,15.0,-999,-99.99,,,-99.99,,2013-07-11 07:32:00,
2013-07-11 00:45:00,56.0,-99.9,30.06,North,354,9.0,19.0,-999,-99.99,,,-99.99,,2013-07-11 07:45:00,
2013-07-11 00:53:00,56.0,-99.9,30.06,North,359,13.0,19.0,-999,-99.99,,,-99.99,,2013-07-11 07:53:00,
2013-07-11 01:02:00,57.0,-99.9,30.06,North,-999,14.0,18.0,-999,-99.99,,,-99.99,,2013-07-11 08:02:00,
2013-07-11 01:12:00,56.0,-99.9,30.06,North,6,7.0,19.0,-999,-99.99,,,-99.99,,2013-07-11 08:12:00,
2013-07-11 01:34:00,57.0,-99.9,30.06,NNE,14,12.0,17.0,-999,-99.99,,,-99.99,,2013-07-11 08:34:00,
2013-07-11 01:43:00,56.0,-99.9,30.06,North,3,10.0,18.0,-999,-99.99,,,-99.99,,2013-07-11 08:43:00,
2013-07-11 01:53:00,56.0,-99.9,30.06,North,3,10.0,18.0,-999,-99.99,,,-99.99,,2013-07-11 08:53:00,
2013-07-11 02:03:00,56.0,-99.9,30.06,North,1,9.0,12.0,-999,-99.99,,,-99.99,,2013-07-11 09:03:00,
2013-07-11 02:12:00,56.0,-99.9,30.06,North,9,5.0,13.0,-999,-99.99,,,-99.99,,2013-07-11 09:12:00,
2013-07-11 02:33:00,56.0,-99.9,30.06,North,1,10.0,15.0,-999,-99.99,,,-99.99,,2013-07-11 09:33:00,
2013-07-11 02:43:00,56.0,-99.9,30.06,North,6,10.0,17.0,-999,-99.99,,,-99.99,,2013-07-11 09:43:00,
2013-07-11 02:53:00,56.0,-99.9,30.06,North,1,9.0,15.0,-999,-99.99,,,-99.99,,2013-07-11 09:53:00,
2013-07-11 03:01:00,56.0,-99.9,30.06,NNE,21,6.0,16.0,-999,-99.99,,,-99.99,,2013-07-11 10:01:00,
2013-07-11 03:12:00,56.0,-99.9,30.06,North,355,10.0,13.0,-999,-99.99,,,-99.99,,2013-07-11 10:12:00,
2013-07-11 03:33:00,57.0,-99.9,30.06,North,353,12.0,18.0,-999,-99.99,,,-99.99,,2013-07-11 10:33:00,
2013-07-11 03:43:00,56.0,-99.9,30.06,North,2,13.0,16.0,-999,-99.99,,,-99.99,,2013-07-11 10:43:00,
2013-07-11 03:52:00,56.0,-99.9,30.06,North,2,13.0,16.0,-999,-99.99,,,-99.99,,2013-07-11 10:52:00,
2013-07-11 04:02:00,56.0,-99.9,30.06,North,1,10.0,16.0,-999,-99.99,,,-99.99,,2013-07-11 11:02:00,
2013-07-11 04:12:00,56.0,-99.9,30.06,North,3,10.0,13.0,-999,-99.99,,,-99.99,,2013-07-11 11:12:00,
2013-07-11 04:33:00,56.0,-99.9,30.06,NNE,19,5.0,11.0,-999,-99.99,,,-99.99,,2013-07-11 11:33:00,
2013-07-11 04:43:00,56.0,-99.9,30.06,North,4,7.0,13.0,-999,-99.99,,,-99.99,,2013-07-11 11:43:00,
2013-07-11 04:53:00,56.0,-99.9,30.06,North,359,10.0,14.0,-999,-99.99,,,-99.99,,2013-07-11 11:53:00,
2013-07-11 05:01:00,56.0,-99.9,30.06,NNE,13,8.0,11.0,-999,-99.99,,,-99.99,,2013-07-11 12:01:00,
2013-07-11 05:12:00,56.0,-99.9,30.06,North,4,9.0,15.0,-999,-99.99,,,-99.99,,2013-07-11 12:12:00,
2013-07-11 05:33:00,56.0,-99.9,30.07,North,11,8.0,14.0,-999,-99.99,,,-99.99,,2013-07-11 12:33:00,
2013-07-11 05:43:00,56.0,-99.9,30.07,NNE,14,5.0,8.0,-999,-99.99,,,-99.99,,2013-07-11 12:43:00,
2013-07-11 05:57:00,56.0,-99.9,30.07,NNE,14,7.0,11.0,-999,-99.99,,,-99.99,,2013-07-11 12:57:00,
2013-07-11 06:03:00,56.0,-99.9,30.08,NNE,22,6.0,9.0,-999,-99.99,,,-99.99,,2013-07-11 13:03:00,
2013-07-11 06:35:00,56.0,-99.9,30.08,NE,38,5.0,7.0,-999,-99.99,,,-99.99,,2013-07-11 13:35:00,
2013-07-11 06:47:00,56.0,-99.9,30.08,NE,38,4.0,6.0,-999,-99.99,,,-99.99,,2013-07-11 13:47:00,
2013-07-11 07:05:00,57.0,-99.9,30.09,NNE,28,5.0,9.0,-999,-99.99,,,-99.99,,2013-07-11 14:05:00,
2013-07-11 07:36:00,57.0,-99.9,30.09,NE,53,4.0,5.0,-999,-99.99,,,-99.99,,2013-07-11 14:36:00,
2013-07-11 07:47:00,57.0,-99.9,30.09,NNE,32,6.0,8.0,-999,-99.99,,,-99.99,,2013-07-11 14:47:00,
2013-07-11 07:55:00,58.0,-99.9,30.09,NNE,22,6.0,12.0,-999,-99.99,,,-99.99,,2013-07-11 14:55:00,
2013-07-11 08:06:00,58.0,-99.9,30.09,NNE,18,5.0,10.0,-999,-99.99,,,-99.99,,2013-07-11 15:06:00,
2013-07-11 08:15:00,58.0,-99.9,30.09,NNE,18,5.0,10.0,-999,-99.99,,,-99.99,,2013-07-11 15:15:00,
2013-07-11 08:38:00,59.0,-99.9,30.09,North,-999,11.0,14.0,-999,-99.99,,,-99.99,,2013-07-11 15:38:00,
2013-07-11 08:48:00,59.0,-99.9,30.09,North,6,14.0,20.0,-999,-99.99,,,-99.99,,2013-07-11 15:48:00,
2013-07-11 08:59:00,59.0,-99.9,30.09,North,6,10.0,18.0,-999,-99.99,,,-99.99,,2013-07-11 15:59:00,
2013-07-11 09:06:00,60.0,-99.9,30.09,North,1,10.0,16.0,-999,-99.99,,,-99.99,,2013-07-11 16:06:00,
2013-07-11 09:15:00,60.0,-99.9,30.09,NNE,13,10.0,17.0,-999,-99.99,,,-99.99,,2013-07-11 16:15:00,
2013-07-11 09:36:00,60.0,-99.9,30.09,North,357,12.0,18.0,-999,-99.99,,,-99.99,,2013-07-11 16:36:00,
2013-07-11 09:49:00,60.0,-99.9,30.08,NNE,17,12.0,18.0,-999,-99.99,,,-99.99,,2013-07-11 16:49:00,
2013-07-11 09:56:00,60.0,-99.9,30.08,NNE,27,12.0,16.0,-999,-99.99,,,-99.99,,2013-07-11 16:56:00,
2013-07-11 10:03:00,60.0,-99.9,30.08,North,5,10.0,14.0,-999,-99.99,,,-99.99,,2013-07-11 17:03:00,
2013-07-11 10:17:00,61.0,-99.9,30.08,NNE,15,6.0,13.0,-999,-99.99,,,-99.99,,2013-07-11 17:17:00,
2013-07-11 10:27:00,61.0,-99.9,30.08,NNE,15,6.0,13.0,-999,-99.99,,,-99.99,,2013-07-11 17:27:00,
2013-07-11 10:50:00,62.0,-99.9,30.08,North,360,9.0,13.0,-999,-99.99,,,-99.99,,2013-07-11 17:50:00,
2013-07-11 10:57:00,62.0,-99.9,30.08,North,360,9.0,13.0,-999,-99.99,,,-99.99,,2013-07-11 17:57:00,
2013-07-11 11:06:00,59.0,-99.9,30.08,NW,314,12.0,16.0,-999,-99.99,,,-99.99,,2013-07-11 18:06:00,
2013-07-11 11:16:00,59.0,-99.9,30.08,NNW,333,14.0,17.0,-999,-99.99,,,-99.99,,2013-07-11 18:16:00,
2013-07-11 11:37:00,60.0,-99.9,30.08,NNW,339,17.0,24.0,-999,-99.99,,,-99.99,,2013-07-11 18:37:00,
2013-07-11 11:49:00,60.0,-99.9,30.09,NNW,335,19.0,24.0,-999,-99.99,,,-99.99,,2013-07-11 18:49:00,
2013-07-11 11:56:00,60.0,-99.9,30.09,NNW,339,17.0,24.0,-999,-99.99,,,-99.99,,2013-07-11 18:56:00,
2013-07-11 12:05:00,61.0,-99.9,30.09,NNW,345,17.0,23.0,-999,-99.99,,,-99.99,,2013-07-11 19:05:00,
2013-07-11 12:39:00,59.0,-99.9,30.08,NNW,341,18.0,25.0,-999,-99.99,,,-99.99,,2013-07-11 19:39:00,
2013-07-11 12:47:00,59.0,-99.9,30.08,NNW,343,19.0,28.0,-999,-99.99,,,-99.99,,2013-07-11 19:47:00,
2013-07-11 12:58:00,59.0,-99.9,30.08,NNW,343,19.0,28.0,-999,-99.99,,,-99.99,,2013-07-11 19:58:00,
2013-07-11 13:07:00,59.0,-99.9,30.08,NNW,339,22.0,30.0,-999,-99.99,,,-99.99,,2013-07-11 20:07:00,
2013-07-11 13:40:00,60.0,-99.9,30.08,NNW,342,23.0,30.0,-999,-99.99,,,-99.99,,2013-07-11 20:40:00,
2013-07-11 13:50:00,60.0,-99.9,30.08,NNW,339,21.0,28.0,-999,-99.99,,,-99.99,,2013-07-11 20:50:00,
2013-07-11 14:06:00,60.0,-99.9,30.08,NNW,336,19.0,27.0,-999,-99.99,,,-99.99,,2013-07-11 21:06:00,
2013-07-11 14:59:00,61.0,-99.9,30.07,NNW,341,22.0,29.0,-999,-99.99,,,-99.99,,2013-07-11 21:59:00,
2013-07-11 15:36:00,60.0,-99.9,30.06,NNW,344,24.0,31.0,-999,-99.99,,,-99.99,,2013-07-11 22:36:00,
2013-07-11 15:55:00,59.0,-99.9,30.06,NNW,348,22.0,29.0,-999,-99.99,,,-99.99,,2013-07-11 22:55:00,
2013-07-11 16:06:00,59.0,-99.9,30.05,NNW,343,25.0,33.0,-999,-99.99,,,-99.99,,2013-07-11 23:06:00,
2013-07-11 16:37:00,59.0,-99.9,30.05,NNW,338,24.0,32.0,-999,-99.99,,,-99.99,,2013-07-11 23:37:00,
2013-07-11 16:48:00,59.0,-99.9,30.05,NNW,341,25.0,33.0,-999,-99.99,,,-99.99,,2013-07-11 23:48:00,
2013-07-11 17:00:00,59.0,-99.9,30.05,NNW,341,26.0,32.0,-999,-99.99,,,-99.99,,2013-07-12 00:00:00,
2013-07-11 17:06:00,59.0,-99.9,30.04,NNW,341,24.0,33.0,-999,-99.99,,,-99.99,,2013-07-12 00:06:00,
2013-07-11 17:15:00,59.0,-99.9,30.04,NNW,343,26.0,34.0,-999,-99.99,,,-99.99,,2013-07-12 00:15:00,
2013-07-11 17:37:00,59.0,-99.9,30.04,NNW,340,23.0,30.0,-999,-99.99,,,-99.99,,2013-07-12 00:37:00,
2013-07-11 17:46:00,59.0,-99.9,30.04,NNW,343,25.0,31.0,-999,-99.99,,,-99.99,,2013-07-12 00:46:00,
2013-07-11 17:58:00,59.0,-99.9,30.04,NNW,341,26.0,32.0,-999,-99.99,,,-99.99,,2013-07-12 00:58:00,
2013-07-11 18:05:00,59.0,-99.9,30.03,NNW,339,23.0,38.0,-999,-99.99,,,-99.99,,2013-07-12 01:05:00,
2013-07-11 18:38:00,58.0,-99.9,30.03,NNW,342,20.0,27.0,-999,-99.99,,,-99.99,,2013-07-12 01:38:00,
2013-07-11 18:49:00,58.0,-99.9,30.03,NNW,335,23.0,29.0,-999,-99.99,,,-99.99,,2013-07-12 01:49:00,
2013-07-11 18:56:00,58.0,-99.9,30.03,NNW,341,22.0,30.0,-999,-99.99,,,-99.99,,2013-07-12 01:56:00,
2013-07-11 19:09:00,58.0,-99.9,30.03,NNW,342,22.0,28.0,-999,-99.99,,,-99.99,,2013-07-12 02:09:00,
2013-07-11 19:17:00,58.0,-99.9,30.03,NNW,338,21.0,29.0,-999,-99.99,,,-99.99,,2013-07-12 02:17:00,
2013-07-11 19:36:00,58.0,-99.9,30.02,NNW,346,19.0,25.0,-999,-99.99,,,-99.99,,2013-07-12 02:36:00,
2013-07-11 19:46:00,58.0,-99.9,30.02,NNW,341,20.0,24.0,-999,-99.99,,,-99.99,,2013-07-12 02:46:00,
2013-07-11 19:56:00,58.0,-99.9,30.02,NNW,339,17.0,27.0,-999,-99.99,,,-99.99,,2013-07-12 02:56:00,
2013-07-11 20:04:00,58.0,-99.9,30.02,NNW,337,18.0,24.0,-999,-99.99,,,-99.99,,2013-07-12 03:04:00,
2013-07-11 20:14:00,58.0,-99.9,30.02,NNW,345,19.0,25.0,-999,-99.99,,,-99.99,,2013-07-12 03:14:00,
2013-07-11 20:38:00,59.0,-99.9,30.02,NNW,339,18.0,25.0,-999,-99.99,,,-99.99,,2013-07-12 03:38:00,
2013-07-11 20:47:00,58.0,-99.9,30.02,NNW,344,14.0,22.0,-999,-99.99,,,-99.99,,2013-07-12 03:47:00,
2013-07-11 20:57:00,58.0,-99.9,30.02,NNW,338,15.0,26.0,-999,-99.99,,,-99.99,,2013-07-12 03:57:00,
2013-07-11 21:01:00,58.0,-99.9,30.02,NNW,345,16.0,22.0,-999,-99.99,,,-99.99,,2013-07-12 04:01:00,
2013-07-11 21:11:00,58.0,-99.9,30.02,North,352,13.0,19.0,-999,-99.99,,,-99.99,,2013-07-12 04:11:00,
2013-07-11 21:32:00,58.0,-99.9,30.02,North,352,10.0,18.0,-999,-99.99,,,-99.99,,2013-07-12 04:32:00,
2013-07-11 21:43:00,58.0,-99.9,30.02,NNW,346,11.0,17.0,-999,-99.99,,,-99.99,,2013-07-12 04:43:00,
2013-07-11 21:53:00,58.0,-99.9,30.02,NNW,342,13.0,20.0,-999,-99.99,,,-99.99,,2013-07-12 04:53:00,
2013-07-11 22:02:00,58.0,-99.9,30.02,North,353,12.0,19.0,-999,-99.99,,,-99.99,,2013-07-12 05:02:00,
2013-07-11 22:12:00,58.0,-99.9,30.02,North,350,13.0,20.0,-999,-99.99,,,-99.99,,2013-07-12 05:12:00,
2013-07-11 22:32:00,57.0,-99.9,30.03,North,360,11.0,18.0,-999,-99.99,,,-99.99,,2013-07-12 05:32:00,
2013-07-11 22:43:00,58.0,-99.9,30.03,North,357,17.0,22.0,-999,-99.99,,,-99.99,,2013-07-12 05:43:00,
2013-07-11 22:53:00,57.0,-99.9,30.03,North,359,15.0,23.0,-999,-99.99,,,-99.99,,2013-07-12 05:53:00,
2013-07-11 23:02:00,57.0,-99.9,30.03,North,355,12.0,16.0,-999,-99.99,,,-99.99,,2013-07-12 06:02:00,
2013-07-11 23:33:00,57.0,-99.9,30.03,North,358,12.0,17.0,-999,-99.99,,,-99.99,,2013-07-12 06:33:00,
2013-07-11 23:42:00,57.0,-99.9,30.03,North,354,9.0,17.0,-999,-99.99,,,-99.99,,2013-07-12 06:42:00,
2013-07-11 23:52:00,57.0,-99.9,30.03,North,359,12.0,17.0,-999,-99.99,,,-99.99,,2013-07-12 06:52:00,